* Astronomy

Members Login
Username 
 
Password 
    Remember Me  
Post Info TOPIC: Asteroid 2004 VU130


L

Posts: 131433
Date:
Asteroid 2004 VU130
Permalink  
 


Orbital elements:
2004 VU130
Epoch 2011 Aug. 27.0 TT = JDT 2455800.5                 MPC
M  44.41168              (2000.0)            P               Q
n   0.00198295     Peri.  272.40092     +0.70470385     +0.70312770
a  62.7471782      Node    42.94301     -0.58295634     +0.65004519
e   0.4302767      Incl.    8.00632     -0.40441858     +0.28818862
P 497              H    7.0           G   0.15           U   4

MPEC 2011 - O17



__________________
Page 1 of 1  sorted by
Quick Reply

Please log in to post quick replies.



Create your own FREE Forum
Report Abuse
Powered by ActiveBoard